Flag for U.S.A. Weather past 2 weeks in Billings, Montana, U.S.A.

Now
56 °F

Passing clouds.


Feels Like: 56 °F
Forecast: 60 / 78 °F
Wind: No wind

Location: Billings Logan International Airport

Current Time: Aug 29, 2014 at 8:06:25 AM

Latest Report: Aug 29, 2014 at 6:53 AM


Visibility: 10 mi

Pressure: 30.01 "Hg

Humidity: 84%

Dew point: 51 °F

Location of BillingsLocation

Historic Weather in Billings — Graph

°F

Billings temperature yesterday

Maximum temperature yesterday: 88 °F (at 3:53 PM)
Minimum temperature yesterday: 60 °F (at 5:53 AM)
Average temperature yesterday: 74 °F

Past Weeks' High & Low Weather Summary

 TemperatureHumidityPressure
High92 °F (Aug 19, 3:53 PM)100% (Aug 23, 6:53 AM)30.19 "Hg (Aug 23, 6:53 AM)
Low45 °F (Aug 25, 5:53 AM)14% (Aug 19, 3:53 PM)29.59 "Hg (Aug 19, 3:53 PM)
Average66 °F62%29.94 "Hg
* Reported Aug 14 6:53 AM — Aug 29 6:53 AM, Billings, Weather by CustomWeather, © 2014

Note: Actual official high and low records may vary slightly from our data, if they occured in-between our weather recording intervals... More about our weather records

Advertising

Billings weather history for previous 24 hours

 ConditionsComfort  
Time TempWeatherWind HumidityBarometerVisibility
6:53 AM
Aug 29
56 °FPassing clouds.No wind84%30.01 "Hg10 mi
5:53 AM56 °FPassing clouds.3 mph81%30.01 "Hg10 mi
4:53 AM58 °FPartly cloudy.10 mph81%30.00 "Hg10 mi
3:53 AM60 °FOvercast.13 mph78%29.99 "Hg10 mi
2:53 AM62 °FMostly cloudy.10 mph75%29.98 "Hg10 mi
2:03 AM67 °FOvercast.13 mph61%30.03 "Hg10 mi
1:53 AM69 °FOvercast.16 mph55%29.91 "Hg10 mi
12:53 AM67 °FMostly cloudy.16 mph63%29.86 "Hg10 mi
11:53 PM
Aug 28
65 °FThunderstorms. Mostly cloudy.22 mph70%29.88 "Hg3 mi
10:53 PM76 °FPartly cloudy.6 mph35%29.80 "Hg10 mi
9:53 PM77 °FPassing clouds.6 mph33%29.79 "Hg10 mi
8:53 PM80 °FScattered clouds.8 mph27%29.80 "Hg10 mi
7:53 PM81 °FScattered clouds.9 mph28%29.80 "Hg10 mi
6:53 PM85 °FPassing clouds.3 mph25%29.80 "Hg10 mi
5:53 PM87 °FPassing clouds.3 mph21%29.81 "Hg10 mi
4:53 PM88 °FScattered clouds.14 mph21%29.82 "Hg10 mi
3:53 PM88 °FScattered clouds.15 mph22%29.83 "Hg10 mi
2:53 PM87 °FScattered clouds.8 mph22%29.86 "Hg10 mi
1:53 PM85 °FPassing clouds.7 mph23%29.88 "Hg10 mi
12:53 PM84 °FPassing clouds.10 mph30%29.89 "Hg10 mi
11:53 AM80 °FPassing clouds.12 mph34%29.91 "Hg10 mi
10:53 AM76 °FPassing clouds.15 mph42%29.93 "Hg10 mi
9:53 AM72 °FPassing clouds.17 mph48%29.95 "Hg10 mi
8:53 AM67 °FPassing clouds.13 mph53%29.96 "Hg10 mi
Weather by CustomWeather, © 2014

See weather overviewHow to use our weather pages